Regional Weather Roundup
Issued by NWS

Home | Current Version | Previous Version | Text Only | Print | Product List | Glossary On
Versions: 1 2 3 4 5 6 7 8 9 10 11 12 13 14 15 16 17 18 19 20 21 22 23 24 25 26 27 28 29 30 31 32 33 34 35 36 37 38 39 40 41 42 43 44 45 46 47 48 49 50
000
ASUS43 KIND 022359
RWRIN

WEATHER ROUNDUP FOR INDIANA
NATIONAL WEATHER SERVICE INDIANAPOLIS IN
800 PM EDT MON MAY 02 2016

NOTE: "FAIR" INDICATES FEW OR NO CLOUDS BELOW 12,000 FEET WITH NO
SIGNIFICANT WEATHER AND/OR OBSTRUCTIONS TO VISIBILITY.

* - STATION DOES NOT REPORT WEATHER SUCH AS PRECIPITATION OR FOG.

+ - STATION NOT QUALITY CONTROLLED BY THE NATIONAL WEATHER SERVICE.
    USE DATA WITH CAUTION...ESPECIALLY DEWPOINT AND RELATIVE
    HUMIDITY OBSERVATIONS.

INZ001>003-010>013-019-020-030100-
NORTHWEST INDIANA

CITY           SKY/WX    TMP DP  RH WIND       PRES   REMARKS
GARY /AIRPORT/ MOCLDY    50  43  76 NE9       30.03S
RENSSELAER +   CLOUDY    52  45  76 N9        30.00S

$$

LMZ046-743>745-030100-
SOUTHERN LAKE MICHIGAN

STATION/POSITION TIME  TEMP    WIND        PRES    WAVE
                       AIR SEA DIR/SP/G            HT
                 (UTC) (F)     (DEG/KT/KT) (MB)    (FT)
BURNS HARBOR     2327   46      50/  7/  9 1016.9F
MICHIGAN CITY    2300   46      10/  9/ 10   N/A

$$

INZ004-005-014>016-021>024-030100-
NORTH CENTRAL INDIANA

CITY           SKY/WX    TMP DP  RH WIND       PRES   REMARKS
GOSHEN         CLOUDY    51  46  83 NE7       29.99F
6HR MIN TEMP:  50; 6HR MAX TEMP:  52;

SOUTH BEND     CLOUDY    50  42  74 N6        30.01S
6HR MIN TEMP:  50; 6HR MAX TEMP:  53;


$$

INZ006>009-017-018-025>027-030100-
NORTHEAST INDIANA

CITY           SKY/WX    TMP DP  RH WIND       PRES   REMARKS
ANGOLA *+      CLOUDY    48  39  71 CALM      29.99S
FORT WAYNE     DRIZZLE   51  47  86 NE9       29.99S
6HR MIN TEMP:  50; 6HR MAX TEMP:  54; 6HR PCP: TRACE;


$$

INZ028-029-035-036-043>045-051>053-030100-
WEST CENTRAL INDIANA

CITY           SKY/WX    TMP DP  RH WIND       PRES   REMARKS
CRAWFORDSVL +  CLOUDY    51  51 100 N6        29.97S
6HR MIN TEMP:  49; 6HR MAX TEMP:  51;

GREENCASTLE +  CLOUDY    52  50  93 N8        29.97S
LAFAYETTE      CLOUDY    52  47  83 N7        29.98F
6HR MIN TEMP:  51; 6HR MAX TEMP:  53;

TERRE HAUTE    CLOUDY    54  49  83 N3        29.97S
6HR MIN TEMP:  53; 6HR MAX TEMP:  54;


$$

INZ030>032-037>040-046>048-054>057-064-065-030100-
CENTRAL INDIANA

CITY           SKY/WX    TMP DP  RH WIND       PRES   REMARKS
COLUMBUS       CLOUDY    57  54  88 NW9       29.95S
INDIANAPOLIS   MOCLDY    55  49  80 NW10      29.93F
6HR MIN TEMP:  53; 6HR MAX TEMP:  57; 6HR PCP: TRACE;

-EAGLE CREEK   CLOUDY    56  50  80 N7        29.95S
6HR MIN TEMP:  54; 6HR MAX TEMP:  57; 6HR PCP: TRACE;

KOKOMO *+      CLOUDY    52  46  82 NE10      29.97S
6HR MIN TEMP:  52; 6HR MAX TEMP:  55;

SHELBYVILLE    MOCLDY    59  50  72 NW7       29.93F
6HR MIN TEMP:  59; 6HR MAX TEMP:  61;


$$

INZ033-034-041-042-049-050-058-059-030100-
EAST CENTRAL INDIANA

CITY           SKY/WX    TMP DP  RH WIND       PRES   REMARKS
MUNCIE         CLOUDY    55  49  80 NE9       29.95F
6HR MIN TEMP:  55; 6HR MAX TEMP:  57;


$$

INZ060-061-067>069-081>083-085>088-030100-
SOUTHWEST INDIANA

CITY           SKY/WX    TMP DP  RH WIND       PRES   REMARKS
EVANSVILLE     CLOUDY    58  48  69 NW5       29.97S
6HR MIN TEMP:  58; 6HR MAX TEMP:  63;

HUNTINGBURG *+ CLOUDY    57  48  72 NW8       29.97R
6HR MIN TEMP:  57; 6HR MAX TEMP:  63;


$$

INZ062-063-066-070>080-084-089>092-030100-
SOUTH CENTRAL AND SOUTHEAST INDIANA

CITY           SKY/WX    TMP DP  RH WIND       PRES   REMARKS
BLOOMINGTON    CLOUDY    56  48  74 NW3       29.95S
6HR MIN TEMP:  56; 6HR MAX TEMP:  58;

MADISON *+     CLOUDY    59  46  63 CALM      29.96R
SEYMOUR +      CLOUDY    61  48  63 NW7       29.94S

$$





USA.gov is the U.S. government's official web portal to all federal, state and local government web resources and services.